Iridium 75 - Orbit

View from above orbital plane
View from above orbital plane
View from above satellite
View from above satellite

Ground track
Ground track

The orbit data is extracted from the following two-line orbital elements,

1 25346U 98032E   13170.43797926  .00000215  00000-0  69718-4 0  3673
2 25346 086.3990 113.8466 0002338 101.4533 037.6020 14.34219198790588
Epoch (UTC): 19 June 2013 10:30:41
Eccentricity: 0.0002338
inclination: 86.3990°
perigee height: 776 km
apogee height: 779 km
right ascension of ascending node: 113.8466°
argument of perigee: 101.4533°
revolutions per day: 14.34219198
mean anomaly at epoch: 37.6020°
orbit number at epoch: 79058

The dashed part of the orbit path shows where the satellite is in the earth's shadow,  

Developed and maintained by Chris Peat, Heavens-Above GmbH. Please read the updated FAQ before sending e-mail. Imprint. DLR